DW7394 Weather Reports


time (UTC)temp
C
wind
direction
speed
KPH
gust
KPH
rain 1hr
cm
rain 24hr
cm
rain mn
cm
humidity
%
barometer
mb
20260510104545 8 356 6.4 17.7 0.00 0.71 0.00 76 1012.5
20260510104038 8 346 8.0 12.9 0.00 0.71 0.00 77 1012.5
20260510103533 8 15 8.0 17.7 0.00 0.71 0.00 77 1012.4
20260510103033 8 8 6.4 17.7 0.00 0.71 0.00 77 1012.4
20260510102532 8 337 6.4 16.1 0.00 0.71 0.00 77 1012.2
20260510102029 8 39 8.0 16.1 0.00 0.71 0.00 78 1012.1
20260510101528 8 34 8.0 16.1 0.00 0.71 0.00 78 1012.0
20260510101027 8 41 8.0 16.1 0.00 0.71 0.00 78 1012.0
20260510100527 8 32 8.0 16.1 0.00 0.71 0.00 78 1012.0
20260510100025 8 20 8.0 16.1 0.00 0.71 0.00 78 1012.0
20260510095525 8 20 4.8 12.9 0.00 0.71 0.00 78 1011.8
20260510095024 8 346 4.8 11.3 0.00 0.71 0.00 77 1011.8
20260510094525 8 23 4.8 12.9 0.00 0.71 0.00 77 1011.9
20260510094022 9 18 4.8 12.9 0.00 0.71 0.00 76 1011.8
20260510093523 9 337 3.2 8.0 0.00 0.71 0.00 76 1011.6
20260510093023 9 356 4.8 9.7 0.00 0.71 0.00 76 1011.5
20260510092521 9 1 4.8 11.3 0.00 0.71 0.00 75 1011.5
20260510092019 9 8 4.8 11.3 0.00 0.71 0.00 75 1011.3
20260510091518 9 345 4.8 14.5 0.00 0.71 0.00 75 1011.1
20260510091018 9 15 8.0 17.7 0.00 0.71 0.00 75 1011.2
20260510090518 9 340 6.4 17.7 0.00 0.71 0.00 75 1011.1
20260510090019 8 334 6.4 14.5 0.00 0.71 0.00 74 1010.9
20260510085516 8 42 4.8 11.3 0.00 0.71 0.00 75 1010.8
20260510085017 8 356 4.8 11.3 0.00 0.71 0.00 75 1010.8
20260510084514 8 41 4.8 8.0 0.00 0.71 0.00 75 1010.7
20260510084013 8 32 3.2 9.7 0.00 0.71 0.00 75 1010.8
20260510083517 8 51 3.2 9.7 0.00 0.71 0.00 74 1010.7
20260510083012 9 339 1.6 6.4 0.00 0.71 0.00 74 1010.4
20260510082511 9 15 0.0 6.4 0.00 0.71 0.00 74 1010.5
20260510082010 9 344 3.2 6.4 0.00 0.71 0.00 74 1010.5
20260510081527 9 322 1.6 4.8 0.00 0.71 0.00 73 1010.5
20260510081007 9 41 0.0 3.2 0.00 0.71 0.00 73 1010.3
20260510080507 9 74 0.0 4.8 0.00 0.71 0.00 73 1010.2
20260510080005 9 27 0.0 4.8 0.00 0.71 0.00 73 1010.1
20260510075504 9 84 0.0 4.8 0.00 0.71 0.00 73 1009.9
20260510075003 9 51 1.6 8.0 0.00 0.71 0.00 73 1009.9
20260510074503 9 23 3.2 9.7 0.00 0.71 0.00 73 1009.9
20260510074001 10 41 3.2 9.7 0.00 0.71 0.00 73 1009.7
20260510073501 10 356 3.2 11.3 0.00 0.71 0.00 73 1009.7
20260510073106 10 356 4.8 11.3 0.00 0.71 0.00 73 1009.7
20260510072600 10 356 4.8 11.3 0.00 0.71 0.00 74 1009.7
20260510072058 10 18 1.6 9.7 0.00 0.71 0.00 73 1009.5
20260510071559 10 11 4.8 9.7 0.00 0.71 0.00 73 1009.5
20260510071056 10 347 6.4 11.3 0.00 0.71 0.00 73 1009.5
20260510070656 10 18 6.4 14.5 0.00 0.71 0.00 73 1009.4
20260510070054 10 340 6.4 16.1 0.00 0.71 0.00 74 1009.3
20260510065555 10 25 8.0 16.1 0.00 0.71 0.00 74 1009.1
20260510065054 10 356 6.4 12.9 0.00 0.71 0.00 75 1009.2
20260510064559 10 339 6.4 12.9 0.00 0.71 0.00 75 1009.1
20260510064054 10 10 4.8 19.3 0.00 0.71 0.00 76 1009.1
20260510063552 10 25 6.4 19.3 0.00 0.71 0.00 76 1009.1
20260510063052 10 18 8.0 12.9 0.00 0.71 0.00 77 1009.1
20260510062551 10 15 4.8 12.9 0.00 0.71 0.00 78 1009.1
20260510062054 10 8 4.8 17.7 0.00 0.71 0.00 78 1009.2
20260510061549 10 322 8.0 19.3 0.00 0.71 0.00 79 1009.2
20260510061046 10 3 6.4 20.9 0.00 0.71 0.00 79 1009.2
20260510060547 10 356 11.3 20.9 0.00 0.71 0.00 79 1009.2
20260510060048 11 4 9.7 20.9 0.00 0.71 0.00 79 1009.1
20260510055542 11 25 11.3 22.5 0.00 0.71 0.00 79 1009.0
20260510055041 11 6 12.9 29.0 0.00 0.71 0.00 78 1008.9
20260510054540 12 340 9.7 29.0 0.00 0.71 0.00 78 1008.7
20260510054038 12 4 16.1 24.1 0.00 0.71 0.00 79 1008.7
20260510053536 12 356 9.7 22.5 0.00 0.71 0.00 79 1008.6
20260510053042 13 39 12.9 22.5 0.00 0.71 0.00 79 1008.6
20260510052535 13 9 6.4 14.5 0.00 0.71 0.00 79 1008.5
20260510052034 13 335 0.0 14.5 0.00 0.71 0.00 79 1008.5
20260510051539 13 218 3.2 17.7 0.00 0.71 0.00 79 1008.3
20260510051034 13 346 4.8 17.7 0.00 0.71 0.00 79 1008.3
20260510050531 13 333 4.8 14.5 0.00 0.71 0.00 79 1008.3
20260510050039 13 319 4.8 17.7 0.00 0.71 0.00 79 1007.8
20260510045531 13 245 9.7 17.7 0.00 0.76 0.00 79 1007.9
20260510045029 13 290 8.0 22.5 0.00 0.76 0.00 78 1007.5
20260510044543 13 197 9.7 22.5 0.00 0.76 0.00 78 1007.0
20260510044026 13 182 8.0 22.5 0.00 0.76 0.00 78 1006.8
20260510043525 13 201 11.3 24.1 0.00 0.76 0.00 79 1006.7
20260510043024 13 224 14.5 24.1 0.00 0.76 0.00 79 1006.5
20260510042523 13 199 9.7 20.9 0.00 0.76 0.00 79 1006.5
20260510042025 13 212 6.4 16.1 0.00 0.76 0.00 79 1006.5
20260510041521 13 213 6.4 16.1 0.00 0.76 0.00 80 1006.5
20260510041020 13 218 4.8 12.9 0.00 0.76 0.00 80 1006.4
20260510040527 13 205 6.4 19.3 0.00 0.76 0.00 80 1006.4
20260510040033 13 180 8.0 20.9 0.00 0.76 0.00 80 1006.4
20260510035519 13 190 9.7 24.1 0.00 0.79 0.76 80 1006.4
20260510035021 13 245 9.7 30.6 0.00 0.79 0.76 81 1006.5
20260510034518 13 204 14.5 30.6 0.00 0.79 0.76 81 1006.5
20260510034018 13 241 9.7 24.1 0.00 0.79 0.76 81 1006.6
20260510033517 13 196 14.5 32.2 0.00 0.79 0.76 82 1006.6
20260510033018 13 210 11.3 33.8 0.00 0.79 0.76 82 1006.8
20260510032517 13 218 19.3 33.8 0.00 0.79 0.76 82 1006.7
20260510032023 12 231 16.1 30.6 0.00 0.79 0.76 83 1006.7
20260510031517 12 229 17.7 30.6 0.00 0.79 0.76 83 1006.7
20260510031017 12 224 14.5 29.0 0.00 0.79 0.76 84 1006.6
20260510030524 12 211 12.9 30.6 0.00 0.79 0.76 84 1006.6
20260510030017 12 236 8.0 30.6 0.00 0.79 0.76 84 1006.5
20260510025517 12 200 14.5 24.1 0.00 0.79 0.76 84 1006.5
20260510025018 12 205 8.0 12.9 0.00 0.79 0.76 85 1006.5
20260510024516 12 214 4.8 20.9 0.00 0.79 0.76 85 1006.5
20260510024015 12 189 6.4 33.8 0.00 0.79 0.76 85 1006.5
20260510023516 12 224 11.3 40.2 0.00 0.79 0.76 85 1006.6
20260510023015 12 196 20.9 40.2 0.00 0.79 0.76 86 1006.9
20260510022515 12 217 20.9 38.6 0.00 0.79 0.76 86 1007.0
20260510022015 12 205 8.0 22.5 0.00 0.79 0.76 86 1007.0
20260510021515 12 208 4.8 11.3 0.00 0.79 0.76 86 1006.4
20260510021014 12 271 4.8 12.9 0.00 0.79 0.76 86 1006.3
20260510020514 12 194 3.2 12.9 0.00 0.79 0.76 86 1006.3
20260510020020 12 173 3.2 9.7 0.00 0.79 0.76 86 1006.2
20260510015515 12 173 1.6 11.3 0.00 0.79 0.76 86 1006.1
20260510015021 12 181 4.8 16.1 0.00 0.79 0.76 86 1006.2
20260510014514 12 218 6.4 16.1 0.00 0.79 0.76 86 1006.2
20260510014013 12 203 6.4 14.5 0.00 0.79 0.76 85 1006.1
20260510013513 12 130 3.2 19.3 0.00 0.79 0.76 85 1006.0
20260510013013 12 218 8.0 19.3 0.00 0.79 0.76 85 1006.2
20260510012516 12 198 8.0 16.1 0.00 0.79 0.76 85 1006.1
20260510012013 12 259 4.8 14.5 0.00 0.79 0.76 85 1006.0
20260510011516 12 193 6.4 14.5 0.00 0.79 0.76 85 1006.0
20260510011011 12 198 4.8 14.5 0.00 0.79 0.76 85 1005.9
20260510010511 12 197 4.8 16.1 0.00 0.79 0.76 85 1005.9
20260510010011 12 212 8.0 16.1 0.00 0.79 0.76 85 1005.8
20260510005511 12 212 6.4 14.5 0.00 0.89 0.76 85 1005.8
20260510005011 12 239 6.4 17.7 0.00 0.89 0.76 85 1005.7
20260510004511 12 227 8.0 20.9 0.00 0.89 0.76 85 1005.7
20260510004013 12 279 9.7 20.9 0.00 0.89 0.76 85 1005.7
20260510003509 12 217 9.7 20.9 0.00 0.89 0.76 85 1005.8
20260510003010 12 218 9.7 20.9 0.03 0.89 0.76 85 1005.8
20260510002510 12 241 11.3 19.3 0.05 0.89 0.76 85 1005.8
20260510002008 12 197 9.7 24.1 0.05 0.89 0.76 85 1005.8
20260510001607 12 207 9.7 24.1 0.08 0.89 0.76 85 1005.7
20260510001009 13 220 11.3 24.1 0.13 0.89 0.76 85 1005.7
20260510000506 13 269 9.7 24.1 0.18 0.89 0.76 85 1005.7
20260510000014 13 188 14.5 24.1 0.18 0.89 0.76 85 1005.7
20260509235504 12 210 9.7 22.5 0.30 1.04 0.76 84 1005.7
20260509235004 12 293 9.7 20.9 0.43 1.04 0.76 84 1005.4
20260509234504 12 238 9.7 24.1 0.69 1.04 0.76 84 1005.6
20260509234003 12 223 11.3 29.0 0.71 1.04 0.76 83 1005.7
20260509233502 12 247 11.3 29.0 0.71 1.04 0.76 83 1005.5
20260509233001 13 193 8.0 33.8 0.71 1.02 0.71 82 1005.5
20260509232600 13 205 14.5 33.8 0.71 1.02 0.71 82 1005.7
20260509232101 13 235 16.1 40.2 0.69 0.99 0.71 81 1005.8
20260509231600 13 250 16.1 40.2 0.66 0.97 0.69 81 1005.9
20260509231057 13 315 12.9 32.2 0.61 0.91 0.64 79 1006.1
20260509230601 13 218 3.2 25.7 0.56 0.86 0.58 78 1005.8
20260509230058 14 326 4.8 32.2 0.56 0.86 0.58 76 1005.1
20260509225600 15 337 9.7 32.2 0.43 0.89 0.46 75 1005.6
20260509225055 16 313 8.0 40.2 0.30 0.76 0.33 72 1005.8
20260509224554 17 345 14.5 40.2 0.05 0.51 0.08 68 1005.8
20260509224054 18 322 14.5 35.4 0.03 0.48 0.05 63 1005.0
20260509223554 19 254 17.7 41.8 0.00 0.46 0.03 59 1003.7
20260509223059 19 164 17.7 41.8 0.00 0.46 0.03 57 1002.9
20260509222553 20 257 14.5 41.8 0.00 0.46 0.03 57 1002.8
20260509222053 20 165 16.1 38.6 0.00 0.46 0.03 57 1002.9
20260509221552 20 227 22.5 38.6 0.00 0.46 0.03 57 1003.0
20260509221052 20 218 16.1 37.0 0.00 0.46 0.03 57 1003.2
20260509220554 20 218 19.3 40.2 0.00 0.46 0.03 57 1003.3
20260509220056 20 230 22.5 40.2 0.00 0.46 0.03 57 1003.2
20260509215552 20 215 14.5 56.3 0.00 0.48 0.03 56 1003.2
20260509215052 20 224 22.5 56.3 0.00 0.48 0.03 56 1003.0
20260509214552 20 207 22.5 45.1 0.00 0.48 0.03 57 1003.0
20260509214051 20 201 19.3 45.1 0.00 0.48 0.03 58 1002.8
20260509213551 20 182 14.5 43.5 0.00 0.48 0.03 59 1002.9
20260509213051 20 190 20.9 51.5 0.00 0.48 0.03 58 1002.8
20260509212550 20 213 20.9 51.5 0.00 0.48 0.03 57 1002.9
20260509212050 20 185 20.9 49.9 0.00 0.48 0.03 57 1002.9
20260509211549 20 226 19.3 54.7 0.00 0.48 0.03 56 1002.9
20260509211048 20 238 25.7 56.3 0.00 0.48 0.03 57 1003.1
20260509210550 20 232 33.8 56.3 0.00 0.48 0.03 58 1003.2
20260509210047 20 218 19.3 56.3 0.00 0.48 0.03 57 1003.3
20260509205545 20 222 27.4 56.3 0.00 0.48 0.03 58 1003.3
20260509205045 20 200 22.5 56.3 0.00 0.48 0.03 59 1003.4
20260509204545 20 177 19.3 54.7 0.00 0.48 0.03 60 1003.4
20260509204044 20 177 24.1 54.7 0.00 0.48 0.03 59 1003.7
20260509203545 20 182 20.9 57.9 0.00 0.48 0.03 60 1003.7
20260509203043 20 237 27.4 57.9 0.00 0.48 0.03 59 1003.8
20260509202541 20 199 14.5 46.7 0.00 0.48 0.03 60 1003.9
20260509202043 20 218 30.6 48.3 0.00 0.48 0.03 58 1004.0
20260509201551 20 293 19.3 40.2 0.00 0.48 0.03 59 1004.1
20260509201038 20 218 17.7 57.9 0.00 0.48 0.03 57 1004.1
20260509200537 20 203 27.4 57.9 0.00 0.48 0.03 57 1004.2
20260509200047 20 173 32.2 53.1 0.00 0.48 0.03 58 1004.1
20260509195537 20 230 24.1 51.5 0.00 0.48 0.03 58 1004.2
20260509195035 20 238 14.5 53.1 0.00 0.48 0.03 58 1004.2
20260509194536 21 194 29.0 53.1 0.00 0.48 0.03 58 1004.4
20260509194035 21 197 14.5 43.5 0.00 0.48 0.03 58 1004.4
20260509193535 21 162 19.3 40.2 0.00 0.48 0.03 58 1004.4
20260509193037 21 201 16.1 45.1 0.00 0.48 0.03 59 1004.5
20260509192531 20 259 22.5 53.1 0.00 0.48 0.03 61 1004.7
20260509192032 20 133 19.3 54.7 0.00 0.48 0.03 60 1004.7
20260509191529 20 209 19.3 51.5 0.00 0.48 0.03 61 1004.7
20260509191031 20 182 30.6 51.5 0.00 0.48 0.03 60 1005.0
20260509190527 20 206 27.4 51.5 0.00 0.48 0.03 61 1005.1
20260509190027 20 184 24.1 51.5 0.00 0.48 0.03 61 1005.1
20260509185527 19 197 20.9 40.2 0.00 0.48 0.03 61 1005.1
20260509185026 19 203 20.9 40.2 0.00 0.48 0.03 62 1005.2
20260509184538 19 240 17.7 38.6 0.00 0.48 0.03 62 1005.2
20260509184025 19 220 16.1 38.6 0.00 0.48 0.03 62 1005.3
20260509183525 20 212 22.5 41.8 0.00 0.48 0.03 60 1005.4
20260509183025 20 230 19.3 41.8 0.00 0.48 0.03 60 1005.2
20260509182524 20 238 20.9 40.2 0.00 0.48 0.03 62 1005.3
20260509182024 20 203 24.1 40.2 0.00 0.48 0.03 59 1005.4
20260509181523 20 214 14.5 35.4 0.00 0.48 0.03 60 1005.2
20260509181029 20 242 12.9 43.5 0.00 0.48 0.03 60 1005.2
20260509180521 20 185 16.1 43.5 0.00 0.48 0.03 60 1005.1
20260509180021 20 184 22.5 43.5 0.00 0.48 0.03 59 1005.0
20260509175620 20 159 16.1 38.6 0.00 0.48 0.03 59 1005.0
20260509175034 20 250 17.7 38.6 0.00 0.48 0.03 59 1005.3
20260509174533 19 187 12.9 37.0 0.00 0.48 0.03 58 1005.5
20260509174032 19 218 12.9 30.6 0.00 0.48 0.03 58 1005.5
20260509173531 19 175 14.5 35.4 0.00 0.48 0.03 58 1005.5
20260509173032 19 194 19.3 37.0 0.00 0.48 0.03 58 1005.5
20260509172530 19 223 24.1 37.0 0.00 0.48 0.03 59 1005.6
20260509172029 19 227 19.3 33.8 0.00 0.48 0.03 59 1005.6
20260509171539 19 222 14.5 33.8 0.00 0.48 0.03 58 1005.5
20260509171027 19 227 19.3 33.8 0.00 0.48 0.03 58 1005.5
20260509170526 19 216 6.4 32.2 0.00 0.48 0.03 62 1005.5
20260509170025 18 132 12.9 35.4 0.00 0.48 0.03 62 1005.5
20260509165524 18 219 12.9 38.6 0.00 0.48 0.03 63 1005.5
20260509165022 18 232 20.9 38.6 0.00 0.48 0.03 62 1005.6
20260509164522 18 195 17.7 37.0 0.00 0.48 0.03 62 1005.6
20260509164021 18 200 20.9 33.8 0.00 0.48 0.03 63 1005.5
20260509163519 17 182 19.3 33.8 0.00 0.48 0.03 63 1005.6
20260509163019 17 218 12.9 35.4 0.00 0.48 0.03 64 1005.5
20260509162518 17 207 17.7 35.4 0.00 0.48 0.03 63 1005.7
20260509162016 18 189 12.9 40.2 0.00 0.48 0.03 64 1005.8
20260509161515 18 215 16.1 40.2 0.00 0.48 0.03 65 1005.9
20260509161018 18 269 19.3 40.2 0.00 0.48 0.03 65 1006.0
20260509160513 18 264 17.7 35.4 0.00 0.48 0.03 66 1006.1
20260509160018 18 218 22.5 35.4 0.00 0.48 0.03 68 1006.2
20260509155511 17 187 19.3 33.8 0.00 0.48 0.03 68 1006.2
20260509155011 17 253 17.7 33.8 0.00 0.48 0.03 67 1006.1
20260509154508 17 215 17.7 37.0 0.00 0.48 0.03 70 1006.1
20260509154006 17 218 17.7 37.0 0.00 0.48 0.03 72 1006.2
20260509153505 16 91 8.0 37.0 0.00 0.48 0.03 73 1006.2
20260509153008 16 186 11.3 27.4 0.00 0.48 0.03 76 1006.3
20260509152503 15 227 16.1 33.8 0.00 0.48 0.03 78 1006.3
20260509152001 15 305 12.9 33.8 0.00 0.48 0.03 79 1006.2
20260509151605 14 226 19.3 33.8 0.00 0.48 0.03 79 1006.2
20260509151059 14 241 12.9 32.2 0.00 0.48 0.03 79 1006.2
20260509150557 14 252 6.4 27.4 0.00 0.48 0.03 80 1006.1
20260509150114 14 226 14.5 32.2 0.00 0.48 0.03 81 1006.3
20260509145556 14 206 6.4 32.2 0.00 0.48 0.03 82 1006.2
20260509145055 13 218 14.5 27.4 0.00 0.48 0.03 82 1006.2
20260509144706 13 217 12.9 20.9 0.00 0.48 0.03 83 1006.2
20260509144056 13 290 8.0 20.9 0.00 0.48 0.03 84 1006.2
20260509143552 13 97 6.4 20.9 0.00 0.48 0.03 84 1006.2
20260509143052 13 266 8.0 25.7 0.00 0.48 0.03 84 1006.2
20260509142552 13 225 14.5 25.7 0.00 0.48 0.03 85 1006.3
20260509142049 13 245 9.7 20.9 0.00 0.48 0.03 85 1006.2
20260509141548 13 267 11.3 22.5 0.00 0.48 0.03 86 1006.2
20260509141048 12 225 11.3 22.5 0.00 0.48 0.03 86 1006.3
20260509140546 12 224 11.3 24.1 0.00 0.48 0.03 86 1006.3
20260509140046 12 356 9.7 32.2 0.00 0.48 0.03 87 1006.4
20260509135545 12 206 12.9 32.2 0.00 0.51 0.03 87 1006.3
20260509135045 12 226 14.5 29.0 0.00 0.51 0.03 87 1006.2
20260509134547 12 212 11.3 33.8 0.00 0.51 0.03 88 1006.3
20260509134043 12 257 16.1 33.8 0.00 0.51 0.03 88 1006.3
20260509133542 12 214 16.1 30.6 0.00 0.51 0.03 88 1006.2
20260509133042 12 171 9.7 22.5 0.00 0.51 0.03 89 1006.4
20260509132541 12 273 9.7 29.0 0.00 0.51 0.03 89 1006.5
20260509132040 12 212 16.1 29.0 0.00 0.51 0.03 89 1006.4
20260509131541 12 252 11.3 27.4 0.00 0.51 0.03 89 1006.3
20260509131037 12 202 12.9 24.1 0.00 0.51 0.03 89 1006.3
20260509130536 12 240 9.7 22.5 0.00 0.51 0.03 89 1006.3
20260509130036 11 216 11.3 27.4 0.00 0.51 0.03 89 1006.3
20260509125534 12 213 8.0 27.4 0.00 0.56 0.03 89 1006.4
20260509125034 11 218 9.7 25.7 0.00 0.56 0.03 89 1006.5
20260509124547 11 231 11.3 25.7 0.00 0.56 0.03 89 1006.5
20260509124036 11 216 9.7 25.7 0.00 0.56 0.03 89 1006.5
20260509123533 11 194 11.3 25.7 0.00 0.56 0.03 89 1006.5
20260509123033 11 228 9.7 22.5 0.00 0.56 0.03 89 1006.6
20260509122531 11 182 9.7 22.5 0.00 0.56 0.03 89 1006.7
20260509122030 11 197 6.4 19.3 0.00 0.56 0.03 89 1006.7
20260509121533 11 240 9.7 19.3 0.00 0.56 0.03 89 1006.8
20260509121028 11 233 9.7 20.9 0.00 0.56 0.03 89 1006.8
20260509120527 11 218 11.3 20.9 0.00 0.56 0.03 89 1006.7
20260509120027 11 204 9.7 17.7 0.00 0.56 0.03 89 1006.6
20260509115525 11 221 8.0 16.1 0.00 0.56 0.03 89 1006.7
20260509115026 11 245 6.4 22.5 0.00 0.56 0.03 89 1006.7
20260509114525 11 208 11.3 22.5 0.00 0.56 0.03 89 1006.8
20260509114023 11 199 8.0 19.3 0.00 0.56 0.03 89 1006.8
20260509113529 11 209 8.0 19.3 0.00 0.56 0.03 89 1006.8
20260509113023 11 184 6.4 16.1 0.00 0.56 0.03 89 1006.7
20260509112522 11 215 4.8 16.1 0.00 0.56 0.03 89 1006.7
20260509112022 11 196 8.0 16.1 0.00 0.56 0.03 89 1006.7
20260509111520 11 185 8.0 16.1 0.00 0.56 0.03 89 1006.7
20260509111022 11 167 6.4 14.5 0.00 0.56 0.03 89 1006.6
20260509110618 11 216 8.0 16.1 0.00 0.56 0.03 89 1006.6
20260509110018 11 211 8.0 16.1 0.00 0.56 0.03 89 1006.6
20260509105517 11 218 4.8 16.1 0.00 0.56 0.03 89 1006.5
20260509105017 11 180 8.0 17.7 0.00 0.56 0.03 89 1006.5